Regional Weather Roundup
Issued by NWS

Home | Current Version | Previous Version | Graphics & Text | Print | Product List | Glossary On
Versions: 1 2 3 4 5 6 7 8 9 10 11 12 13 14 15 16 17 18 19 20 21 22 23 24 25 26 27 28 29 30 31 32 33 34 35 36 37 38 39 40 41 42 43 44 45 46 47 48 49 50
000
ASUS43 KFSD 031510
RWRSD

WEATHER ROUNDUP FOR SOUTH DAKOTA
NATIONAL WEATHER SERVICE SIOUX FALLS SD
1000 AM CDT THU SEP 03 2015

NOTE: "FAIR" INDICATES FEW OR NO CLOUDS BELOW 12,000 FEET WITH NO
SIGNIFICANT WEATHER AND/OR OBSTRUCTIONS TO VISIBILITY.


SDZ001>005-009-010-012>017-031600-
NORTHWEST AND NORTH CENTRAL SOUTH DAKOTA

CITY           SKY/WX    TMP DP  RH WIND       PRES   REMARKS
BUFFALO          N/A     78  44  29 W13       29.70R
MOBRIDGE       SUNNY     79  64  60 SE12      29.70S
$$

SDZ012>016-024>037-041>051-057-063-072>074-031600-
SOUTHWEST AND SOUTH CENTRAL SOUTH DAKOTA

CITY           SKY/WX    TMP DP  RH WIND       PRES   REMARKS
RAPID CTY ARPT MOSUNNY   77  55  46 VRB3      29.80S
PIERRE           N/A     77  64  64 MISG      29.73F
CUSTER         MOSUNNY   77  42  28 W7        30.00R
ELLSWORTH AFB  MOSUNNY   80  52  38 SW7       29.78F
PHILIP         SUNNY     84  61  45 SW8       29.75S
PINE RIDGE     PTSUNNY   78  55  44 SW5       29.86S
WINNER         FAIR      86  62  44 S8        29.79R
$$

SDZ004>011-016>023-039-040-031600-
NORTHEAST SOUTH DAKOTA

CITY           SKY/WX    TMP DP  RH WIND       PRES   REMARKS
ABERDEEN       SUNNY     78  70  76 S15       29.76S
WATERTOWN      SUNNY     76  69  79 S14       29.83S
BROOKINGS      SUNNY     73  68  83 SE12      29.86S
SISSETON         N/A     72  70  93 S12       29.82R
$$

SDZ017-020-022-023-036>040-048>070-031600-
SOUTHEAST SOUTH DAKOTA

CITY           SKY/WX    TMP DP  RH WIND       PRES   REMARKS
SIOUX FALLS    SUNNY     75  69  81 S8        29.85S
HURON          SUNNY     75  69  81 S9        29.79R
CHAMBERLAIN    SUNNY     75  69  80 SE6       29.79S
MITCHELL       SUNNY     76  70  82 SE10      29.80F
YANKTON        SUNNY     73  68  83 SE9       29.81S
$$

ABBREVIATIONS USED IN REMARKS
   TC - TEMPERATURE IN CELSIUS
  WCI - WIND CHILL INDEX
   HX - HEAT INDEX
  VSB - VISIBILITY




USA.gov is the U.S. government's official web portal to all federal, state and local government web resources and services.